DW6455 Orivesi FI current weather conditions

sailwx.info

Wind from 342 at 5 knots gusting 13

Air temperature -5.6° C
Dewpoint -6.6° C

Last reported at 2017-Feb-21 08:52 UTC.
Time now 2017-Feb-21 10:02 UTC

Location: N 61°39' E 024°21'.
View on Google Maps.

See reports from other nearby stations

  
Tides and Currents Weather Stations Pressure Air Temp Water Temp Dewpoint Dewpoint Depression Visibility Wind Speed Wind Dir Waves Ship Positions
date/time (UTC)wind fromknots sea level pressurealtimeterstation pressurevisibilityair tempwater tempwave heightnotes
2017-Feb-21 08:52 342 5 gusting 13 -5.6
2017-Feb-21 08:47 040 5 gusting 13 -5.6
2017-Feb-21 08:42 033 6 gusting 10 -6.1
2017-Feb-21 08:37 030 5 gusting 10 -6.1
2017-Feb-21 08:32 355 5 gusting 10 -6.1
2017-Feb-21 08:27 036 6 gusting 10 -6.1
2017-Feb-21 08:22 024 5 gusting 8 -6.1
2017-Feb-21 08:17 026 4 gusting 8 -6.7
2017-Feb-21 08:12 013 4 gusting 9 -6.7
2017-Feb-21 08:07 019 5 gusting 7 -6.7
2017-Feb-21 08:02 034 3 gusting 7 -6.7
2017-Feb-21 07:57 005 2 gusting 7 -6.7
2017-Feb-21 07:52 012 1 gusting 4 -6.7
2017-Feb-21 07:47 005 1 gusting 4 -6.7
2017-Feb-21 07:42 005 2 gusting 6 -6.7
2017-Feb-21 07:37 355 2 gusting 6 -6.7
2017-Feb-21 07:32 355 2 gusting 6 -6.7
2017-Feb-21 07:27 345 2 gusting 6 -6.7
2017-Feb-21 07:22 011 2 gusting 6 -6.7
2017-Feb-21 07:17 028 2 gusting 6 -6.7
2017-Feb-21 07:12 026 2 gusting 6 -6.7
2017-Feb-21 07:07 031 2 gusting 6 -6.7
2017-Feb-21 07:02 024 3 gusting 6 -6.7
2017-Feb-21 06:57 005 2 gusting 6 -7.2
2017-Feb-21 06:52 005 1 gusting 5 -7.2
2017-Feb-21 06:47 005 2 gusting 5 -7.2
2017-Feb-21 06:42 028 1 gusting 2 -7.2
2017-Feb-21 06:37 034 1 gusting 2 -7.2
2017-Feb-21 06:32 012 0 gusting 2 -7.2
2017-Feb-21 06:27 012 0 gusting 2 -7.2
2017-Feb-21 06:22 012 -7.2
2017-Feb-21 06:17 012 -7.2
2017-Feb-21 06:12 012 0 gusting 6 -7.2
2017-Feb-21 06:07 013 1 gusting 6 -7.2
2017-Feb-21 06:02 012 2 gusting 6 -7.2
2017-Feb-21 05:57 005 2 gusting 6 -6.7
2017-Feb-21 05:52 013 3 gusting 7 -6.7
2017-Feb-21 05:47 017 3 gusting 7 -6.7
2017-Feb-21 05:42 011 3 gusting 7 -6.7
2017-Feb-21 05:37 013 2 gusting 7 -6.7
2017-Feb-21 05:32 022 3 gusting 6 -6.7
2017-Feb-21 05:27 015 3 gusting 6 -6.7
2017-Feb-21 05:22 016 3 gusting 8 -6.7
2017-Feb-21 05:17 025 2 gusting 8 -6.1
2017-Feb-21 05:12 015 3 gusting 8 -6.1
2017-Feb-21 05:07 016 3 gusting 8 -6.1
2017-Feb-21 05:02 005 2 gusting 8 -6.1
2017-Feb-21 04:57 005 2 gusting 8 -6.1
2017-Feb-21 04:52 016 2 gusting 8 -5.6
2017-Feb-21 04:47 015 3 gusting 8 -5.6
2017-Feb-21 04:42 005 3 gusting 8 -5.6
2017-Feb-21 04:37 355 3 gusting 7 -5.6
2017-Feb-21 04:32 009 3 gusting 7 -5.6
2017-Feb-21 04:27 -5.6
2017-Feb-21 04:22 018 3 gusting 7 -5.0
2017-Feb-21 04:17 005 3 gusting 7 -5.0
2017-Feb-21 04:12 013 2 gusting 6 -5.0
2017-Feb-21 04:07 355 2 gusting 7 -5.0
2017-Feb-21 04:02 017 1 gusting 7 -4.4
2017-Feb-21 03:57 026 2 gusting 7 -4.4
2017-Feb-21 03:52 026 3 gusting 10 -4.4
2017-Feb-21 03:47 030 3 gusting 10 -4.4
2017-Feb-21 03:42 015 4 gusting 10 -3.9
2017-Feb-21 03:37 023 5 gusting 10 -3.9
2017-Feb-21 03:32 037 5 gusting 10 -3.9
2017-Feb-21 03:27 023 5 gusting 10 -3.9
2017-Feb-21 03:22 058 5 gusting 13 -3.3
2017-Feb-21 03:17 040 6 gusting 13 -3.3
2017-Feb-21 03:12 040 6 gusting 13 -3.3
2017-Feb-21 03:07 019 7 gusting 12 -3.3
2017-Feb-21 03:02 010 6 gusting 12 -3.3
2017-Feb-21 02:57 018 6 gusting 12 -2.8
2017-Feb-21 02:52 030 6 gusting 13 -2.8
2017-Feb-21 02:47 028 6 gusting 13 -2.8
2017-Feb-21 02:42 020 6 gusting 12 -2.8
2017-Feb-21 02:37 016 6 gusting 12 -2.8
2017-Feb-21 02:32 014 6 gusting 9 -2.2
2017-Feb-21 02:27 034 6 gusting 9 -2.2
2017-Feb-21 02:22 005 4 gusting 9 -2.2
2017-Feb-21 02:17 005 4 gusting 9 -2.2
2017-Feb-21 02:12 030 5 gusting 9 -2.2
2017-Feb-21 02:07 036 4 gusting 9 -2.2
2017-Feb-21 02:02 021 3 gusting 9 -2.2
2017-Feb-21 01:57 040 4 gusting 9 -2.2
2017-Feb-21 01:52 018 5 gusting 6 -2.2
2017-Feb-21 01:47 -2.2
2017-Feb-21 01:42 021 3 gusting 6 -2.2
2017-Feb-21 01:37 005 3 gusting 6 -2.2
2017-Feb-21 01:32 043 2 gusting 5 -1.7
2017-Feb-21 01:27 009 2 gusting 5 -1.7
2017-Feb-21 01:22 026 3 gusting 6 -1.7
2017-Feb-21 01:17 030 3 gusting 6 -1.7
2017-Feb-21 01:12 034 2 gusting 4 -1.7
2017-Feb-21 01:07 012 1 gusting 4 -1.7
2017-Feb-21 01:02 334 -1.7
2017-Feb-21 00:57 230 -1.7
2017-Feb-21 00:52 230 -1.7
2017-Feb-21 00:47 229 -1.7
2017-Feb-21 00:42 230 -2.2
2017-Feb-21 00:37 230 -2.2
2017-Feb-21 00:32 230 -2.2
2017-Feb-21 00:27 229 -1.7
2017-Feb-21 00:12 229 -1.7
2017-Feb-21 00:07 229 -2.2
2017-Feb-21 00:02 229 -2.2
2017-Feb-20 23:57 229 -2.2
2017-Feb-20 23:52 229 -2.2
2017-Feb-20 23:47 230 -2.2
2017-Feb-20 23:42 230 -2.2
2017-Feb-20 23:37 230 -2.2
2017-Feb-20 23:32 230 -2.2
2017-Feb-20 23:27 230 -2.2
2017-Feb-20 23:22 230 -2.2
2017-Feb-20 23:17 229 -2.2
2017-Feb-20 23:12 230 -2.2
2017-Feb-20 23:07 230 -2.2
2017-Feb-20 23:02 230 -2.2
2017-Feb-20 22:57 229 -2.2
2017-Feb-20 22:52 229 -2.2
2017-Feb-20 22:47 230 -2.2
2017-Feb-20 22:42 230 -2.2
2017-Feb-20 22:37 230 -2.2
2017-Feb-20 22:32 230 -2.2
2017-Feb-20 22:27 229 -2.2
2017-Feb-20 22:22 230 -2.2
2017-Feb-20 22:17 229 -2.2
2017-Feb-20 22:12 230 -2.2
2017-Feb-20 22:07 230 -2.2
2017-Feb-20 22:02 230 -2.2
2017-Feb-20 21:57 229 -2.2
2017-Feb-20 21:52 229 -2.2
2017-Feb-20 21:47 229 -2.2
2017-Feb-20 21:42 229 -2.2
2017-Feb-20 21:37 229 -2.2
2017-Feb-20 21:32 229 -2.2
2017-Feb-20 21:27 229 -2.2
2017-Feb-20 21:22 230 -2.2
2017-Feb-20 21:17 229 -2.2
2017-Feb-20 21:12 229 -2.2
2017-Feb-20 21:07 230 -2.2
2017-Feb-20 21:02 230 -2.2
2017-Feb-20 20:57 230 -2.2
2017-Feb-20 20:52 229 -2.2
2017-Feb-20 20:47 229 -2.2
2017-Feb-20 20:42 229 -2.2
2017-Feb-20 20:37 230 -2.2
2017-Feb-20 20:32 229 -2.2
2017-Feb-20 20:27 229 -1.7
2017-Feb-20 20:22 230 -1.7
2017-Feb-20 20:17 230 -1.7
2017-Feb-20 20:12 230 -1.7
2017-Feb-20 20:07 230 -1.7
2017-Feb-20 20:02 230 -1.7
2017-Feb-20 19:57 229 -1.7
2017-Feb-20 19:52 230 -1.7
2017-Feb-20 19:47 230 -1.7
2017-Feb-20 19:42 230 -1.7
2017-Feb-20 19:37 229 -1.7
2017-Feb-20 19:32 229 -1.7
2017-Feb-20 19:27 229 -1.7
2017-Feb-20 19:22 230 -1.7
2017-Feb-20 19:17 229 -1.7
2017-Feb-20 19:12 230 -1.7
2017-Feb-20 19:07 229 -1.7
2017-Feb-20 19:02 229 -1.7
2017-Feb-20 18:57 230 -1.7
2017-Feb-20 18:52 229 -1.7
2017-Feb-20 18:47 229 -1.7
2017-Feb-20 18:42 230 -1.7
2017-Feb-20 18:37 230 -1.7
2017-Feb-20 18:32 229 -1.7
2017-Feb-20 18:27 230 -1.7
2017-Feb-20 18:22 229 -1.7
2017-Feb-20 18:17 229 -1.7
2017-Feb-20 18:12 230 -1.7
2017-Feb-20 18:07 230 -1.7
2017-Feb-20 18:02 229 -1.7
2017-Feb-20 17:57 230 -1.7
2017-Feb-20 17:52 229 -1.7
2017-Feb-20 17:47 229 -1.7
2017-Feb-20 17:42 230 -1.7
2017-Feb-20 17:37 229 -1.7
2017-Feb-20 17:32 230 -1.7
2017-Feb-20 17:27 230 -1.7
2017-Feb-20 17:22 229 -1.1
2017-Feb-20 17:17 230 -1.1
2017-Feb-20 17:12 229 -1.1
2017-Feb-20 17:07 230 -1.1
2017-Feb-20 17:02 229 -1.1
2017-Feb-20 16:57 230 -1.1
2017-Feb-20 16:52 230 -1.1
2017-Feb-20 16:47 230 -1.1
2017-Feb-20 16:42 230 -1.1
2017-Feb-20 16:37 230 -1.1
2017-Feb-20 16:32 230 -1.1
2017-Feb-20 16:27 230 -1.1
2017-Feb-20 16:22 230 -0.6
2017-Feb-20 16:17 230 -0.6
2017-Feb-20 16:12 229 -0.6
2017-Feb-20 16:07 230 -0.6
2017-Feb-20 16:02 229 -0.6
2017-Feb-20 15:57 229 -0.6
2017-Feb-20 15:52 230 -0.6
2017-Feb-20 15:47 229 -0.6
2017-Feb-20 15:42 230 -0.6
2017-Feb-20 15:37 230 -0.6
2017-Feb-20 15:32 229 -0.6
2017-Feb-20 15:27 230 -0.6
2017-Feb-20 15:22 230 -0.6
2017-Feb-20 15:17 229 -0.6
2017-Feb-20 15:12 230 -0.6
2017-Feb-20 15:07 229 -0.6
2017-Feb-20 15:02 230 -0.6
2017-Feb-20 14:57 230 -0.0
2017-Feb-20 14:52 230 -0.0
2017-Feb-20 14:47 229 -0.0
2017-Feb-20 14:42 229 -0.0
2017-Feb-20 14:37 230 -0.0
2017-Feb-20 14:32 229 -0.0
2017-Feb-20 14:27 229 -0.0
2017-Feb-20 14:22 229 -0.0
2017-Feb-20 14:17 230 0.6
2017-Feb-20 14:12 230 0.6
2017-Feb-20 14:07 230 0.6
2017-Feb-20 14:02 229 0.6
2017-Feb-20 13:57 229 0.6
2017-Feb-20 13:52 229 0.6
2017-Feb-20 13:47 229 0.6
2017-Feb-20 13:42 230 0.6
2017-Feb-20 13:37 181 0 gusting 2 0.6
2017-Feb-20 13:32 181 0 gusting 1 0.6
2017-Feb-20 13:27 181 0.6
2017-Feb-20 13:22 181 0.6
2017-Feb-20 13:17 181 0.6
2017-Feb-20 13:12 181 0.6
2017-Feb-20 13:07 181 0.6
2017-Feb-20 13:02 181 0.6
2017-Feb-20 12:57 181 0.6
2017-Feb-20 12:52 180 0 gusting 3 0.6
2017-Feb-20 12:47 181 0 gusting 3 0.6
2017-Feb-20 12:42 181 0 gusting 3 0.6
2017-Feb-20 12:37 165 0 gusting 3 0.6
2017-Feb-20 12:32 165 0 gusting 4 0.6
2017-Feb-20 12:27 166 0 gusting 4 0.6
2017-Feb-20 12:22 175 1 gusting 4 0.6
2017-Feb-20 12:17 175 1 gusting 4 0.6
2017-Feb-20 12:12 165 1 gusting 4 0.6
2017-Feb-20 12:07 165 1 gusting 4 1.1
2017-Feb-20 12:02 166 0 gusting 4 1.1
2017-Feb-20 11:57 166 0 gusting 4 0.6
2017-Feb-20 11:52 165 1 gusting 4 0.6
2017-Feb-20 11:47 165 2 gusting 4 0.6
2017-Feb-20 11:42 165 1 gusting 4 0.6
2017-Feb-20 11:37 165 1 gusting 4 0.6
2017-Feb-20 11:32 165 1 gusting 4 0.6
2017-Feb-20 11:27 169 2 gusting 4 0.6
2017-Feb-20 11:22 184 2 gusting 4 0.6
2017-Feb-20 11:17 156 1 gusting 4 0.6
2017-Feb-20 11:12 157 1 gusting 4 0.6
2017-Feb-20 11:07 156 1 gusting 5 0.6
2017-Feb-20 11:02 157 2 gusting 5 0.6
2017-Feb-20 10:57 156 2 gusting 5 0.6
2017-Feb-20 10:52 156 0 gusting 2 0.6
2017-Feb-20 10:47 156 0 gusting 2 0.6
2017-Feb-20 10:42 157 0 gusting 2 0.6
2017-Feb-20 10:37 156 0 gusting 4 0.6
2017-Feb-20 10:32 156 0 gusting 4 0.6
2017-Feb-20 10:27 156 0 gusting 4 0.6
2017-Feb-20 10:22 157 1 gusting 4 0.6
2017-Feb-20 10:17 156 1 gusting 4 0.6
2017-Feb-20 10:12 158 2 gusting 4 0.6
2017-Feb-20 10:07 158 2 gusting 3 0.6
2017-Feb-20 10:02 161 2 gusting 3 0.6
2017-Feb-20 09:57 161 0 gusting 3 0.6
2017-Feb-20 09:52 245 0.6
2017-Feb-20 09:47 246 0.6
2017-Feb-20 09:42 246 -0.0
2017-Feb-20 09:37 246 -0.0
2017-Feb-20 09:32 246 -0.0
2017-Feb-20 09:27 246 -0.0
2017-Feb-20 09:22 246 0 gusting 2 -0.0
2017-Feb-20 09:17 246 0 gusting 2 -0.0
2017-Feb-20 09:12 221 -0.0
2017-Feb-20 09:07 221 -0.6
2017-Feb-20 09:02 221 -0.6
2017-Feb-20 08:57 221 -0.6
2017-Feb-20 08:52 221 -0.6
2017-Feb-20 08:47 221 -0.6
2017-Feb-20 08:42 221 0 gusting 1 -0.6
2017-Feb-20 08:37 221 -1.1
2017-Feb-20 08:32 221 -1.1
2017-Feb-20 08:27 221 -1.1
2017-Feb-20 08:22 221 -1.1
2017-Feb-20 08:17 221 -1.1
2017-Feb-20 08:12 221 -1.1
2017-Feb-20 08:07 221 0 gusting 3 -1.1
2017-Feb-20 08:02 221 0 gusting 3 -1.1
2017-Feb-20 07:57 221 -1.7
2017-Feb-20 07:52 221 -1.7
2017-Feb-20 07:47 211 -1.7
2017-Feb-20 07:42 211 -1.7
2017-Feb-20 07:37 211 -1.7
2017-Feb-20 07:32 211 -1.7
2017-Feb-20 07:27 211 -1.7
2017-Feb-20 07:22 211 -1.7
2017-Feb-20 07:17 211 -1.7
2017-Feb-20 07:12 211 -2.2
2017-Feb-20 07:07 211 -2.2
2017-Feb-20 07:02 211 -2.2
2017-Feb-20 06:57 211 -2.2
2017-Feb-20 06:52 211 -2.2
2017-Feb-20 06:47 211 -2.2
2017-Feb-20 06:42 211 -2.2
2017-Feb-20 06:37 211 -2.2
2017-Feb-20 06:32 211 -2.2
2017-Feb-20 06:27 211 -2.2
2017-Feb-20 06:22 211 -2.8
2017-Feb-20 06:17 211 0 gusting 2 -2.8
2017-Feb-20 06:12 211 0 gusting 1 -2.8
2017-Feb-20 06:07 211 -2.2
2017-Feb-20 06:02 211 -2.2
2017-Feb-20 05:57 211 -2.2
2017-Feb-20 05:52 211 -2.2
2017-Feb-20 05:47 211 -2.2
2017-Feb-20 05:42 211 -2.2
2017-Feb-20 05:37 211 -2.2
2017-Feb-20 05:32 211 -2.2
2017-Feb-20 05:27 211 -2.2
2017-Feb-20 05:22 211 -2.2
2017-Feb-20 05:17 211 -2.2
2017-Feb-20 05:12 329 -2.2
2017-Feb-20 05:07 329 -2.2
2017-Feb-20 05:02 330 -2.2
2017-Feb-20 04:57 329 0 gusting 4 -2.2
2017-Feb-20 04:52 330 -2.2
2017-Feb-20 04:47 329 -2.2
2017-Feb-20 04:42 329 0 gusting 2 -2.2
2017-Feb-20 04:37 329 0 gusting 4 -2.2
2017-Feb-20 04:32 329 0 gusting 4 -2.2
2017-Feb-20 04:27 329 0 gusting 4 -1.7
2017-Feb-20 04:22 329 0 gusting 4 -1.7
2017-Feb-20 04:17 329 1 gusting 4 -1.7
2017-Feb-20 04:12 327 0 gusting 6 -1.7
2017-Feb-20 04:07 327 0 gusting 7 -1.7
2017-Feb-20 04:02 338 1 gusting 7 -1.7
2017-Feb-20 03:57 327 2 gusting 7 -1.7
2017-Feb-20 03:52 301 2 gusting 8 -1.7
2017-Feb-20 03:47 303 2 gusting 8 -1.7
2017-Feb-20 03:42 325 2 gusting 7 -1.7
2017-Feb-20 03:37 307 2 gusting 7 -1.7
2017-Feb-20 03:32 308 3 gusting 6 -1.7
2017-Feb-20 03:27 309 2 gusting 6 -1.7
2017-Feb-20 03:22 325 1 gusting 6 -1.7
2017-Feb-20 03:17 312 0 gusting 6 -1.7
2017-Feb-20 03:12 339 0 gusting 6 -1.1
2017-Feb-20 03:07 295 1 gusting 6 -1.1
2017-Feb-20 03:02 310 1 gusting 7 -1.1
2017-Feb-20 02:57 334 1 gusting 7 -1.1
2017-Feb-20 02:52 325 1 gusting 8 -1.1
2017-Feb-20 02:47 327 0 gusting 8 -1.1
2017-Feb-20 02:42 338 1 gusting 8 -1.1
2017-Feb-20 02:37 339 2 gusting 8 -1.1
2017-Feb-20 02:32 316 3 gusting 13 -1.1
2017-Feb-20 02:27 320 2 gusting 13 -1.1
2017-Feb-20 02:22 327 2 gusting 13 -1.1
2017-Feb-20 02:17 333 3 gusting 13 -1.1
2017-Feb-20 02:12 311 3 gusting 11 -1.1
2017-Feb-20 02:07 290 2 gusting 11 -1.1
2017-Feb-20 02:02 308 1 gusting 6 -1.1
2017-Feb-20 01:57 320 0 gusting 6 -1.1
2017-Feb-20 01:52 289 1 gusting 7 -1.1
2017-Feb-20 01:47 315 2 gusting 7 -1.1
2017-Feb-20 01:42 310 2 gusting 13 -0.6
2017-Feb-20 01:37 303 2 gusting 13 -0.6
2017-Feb-20 01:32 319 3 gusting 13 -0.6
2017-Feb-20 01:27 290 3 gusting 13 -0.6
2017-Feb-20 01:22 306 3 gusting 13 -0.6
2017-Feb-20 01:17 290 4 gusting 13 -0.6
2017-Feb-20 01:12 337 4 gusting 12 -0.6
2017-Feb-20 01:07 347 3 gusting 12 -0.6
2017-Feb-20 01:02 315 3 gusting 13 -0.6
2017-Feb-20 00:57 355 4 gusting 13 -0.6
2017-Feb-20 00:52 321 4 gusting 12 -0.6
2017-Feb-20 00:47 282 3 gusting 12 -0.6
2017-Feb-20 00:42 -0.6
2017-Feb-20 00:37 302 4 gusting 12 -0.6
2017-Feb-20 00:32 327 5 gusting 12 -0.6
2017-Feb-20 00:27 346 5 gusting 12 -0.6
2017-Feb-20 00:22 313 5 gusting 12 -0.6
2017-Feb-20 00:17 300 5 gusting 12 -0.6
2017-Feb-20 00:12 335 6 gusting 13 -0.6
2017-Feb-20 00:07 349 6 gusting 13 -0.6
2017-Feb-20 00:02 297 6 gusting 12 -0.6
2017-Feb-19 23:57 336 6 gusting 12 -0.6
2017-Feb-19 23:52 343 5 gusting 20 -0.6
2017-Feb-19 23:47 338 5 gusting 20 -0.6
2017-Feb-19 23:42 333 6 gusting 21 -0.6
2017-Feb-19 23:37 322 9 gusting 21 -0.6
2017-Feb-19 23:32 344 9 gusting 21 -0.0
2017-Feb-19 23:27 005 8 gusting 21 -0.0
2017-Feb-19 23:22 311 8 gusting 19 -0.0
2017-Feb-19 23:17 348 8 gusting 19 -0.0
2017-Feb-19 23:12 355 8 gusting 19 -0.0
2017-Feb-19 23:07 323 8 gusting 19 0.6
2017-Feb-19 23:02 341 7 gusting 14 0.6
2017-Feb-19 22:57 336 6 gusting 14 0.6
2017-Feb-19 22:52 335 6 gusting 18 0.6
2017-Feb-19 22:47 344 7 gusting 18 0.6
2017-Feb-19 22:42 338 8 gusting 20 0.6
2017-Feb-19 22:37 1.1
2017-Feb-19 22:32 337 10 gusting 20 1.1
2017-Feb-19 22:27 005 10 gusting 20 1.7
2017-Feb-19 22:22 005 9 gusting 19 1.7
2017-Feb-19 22:17 344 7 gusting 19 2.2
2017-Feb-19 22:12 342 8 gusting 19 2.2
2017-Feb-19 22:07 301 8 gusting 19 2.8
2017-Feb-19 22:02 021 6 gusting 15 2.8
2017-Feb-19 21:57 336 5 gusting 15 3.3
2017-Feb-19 21:52 296 5 gusting 16 3.3
2017-Feb-19 21:47 297 6 gusting 16 3.3
2017-Feb-19 21:42 277 6 gusting 15 3.3
2017-Feb-19 21:37 311 6 gusting 15 3.3
2017-Feb-19 21:32 296 6 gusting 15 3.3
2017-Feb-19 21:27 355 6 gusting 15 3.3
2017-Feb-19 21:22 299 6 gusting 17 3.3
2017-Feb-19 21:17 273 6 gusting 17 3.3
2017-Feb-19 21:12 299 6 gusting 17 3.3
2017-Feb-19 21:07 286 6 gusting 17 3.3
2017-Feb-19 21:02 287 6 gusting 18 3.3
2017-Feb-19 20:57 309 6 gusting 18 3.3
2017-Feb-19 20:52 285 6 gusting 13 3.3
2017-Feb-19 20:47 263 6 gusting 13 3.3
2017-Feb-19 20:42 296 5 gusting 14 3.3
2017-Feb-19 20:37 294 5 gusting 14 3.3
2017-Feb-19 20:32 297 5 gusting 11 3.3
2017-Feb-19 20:27 309 5 gusting 11 3.3
2017-Feb-19 20:22 257 4 gusting 15 3.3
2017-Feb-19 20:17 263 4 gusting 15 3.3
2017-Feb-19 20:12 288 5 gusting 12 2.8
2017-Feb-19 20:07 288 5 gusting 12 2.8
2017-Feb-19 20:02 285 4 gusting 14 2.8
2017-Feb-19 19:57 293 4 gusting 14 2.8
2017-Feb-19 19:52 273 4 gusting 13 2.8
2017-Feb-19 19:47 315 4 gusting 13 2.8
2017-Feb-19 19:42 262 5 gusting 12 2.8
2017-Feb-19 19:37 299 5 gusting 12 2.8
2017-Feb-19 19:32 286 4 gusting 13 2.8
2017-Feb-19 19:27 253 4 gusting 13 2.8
2017-Feb-19 19:22 290 3 gusting 13 2.8
2017-Feb-19 19:17 246 4 gusting 13 2.8
2017-Feb-19 19:12 259 4 gusting 13 2.8
2017-Feb-19 19:07 286 3 gusting 13 2.8
2017-Feb-19 19:02 276 3 gusting 13 2.8
2017-Feb-19 18:57 238 3 gusting 13 2.8
2017-Feb-19 18:52 276 4 gusting 11 2.8
2017-Feb-19 18:47 265 4 gusting 11 2.8
2017-Feb-19 18:42 263 3 gusting 11 2.8
2017-Feb-19 18:37 276 2 gusting 11 2.8
2017-Feb-19 18:32 265 3 gusting 10 2.8
2017-Feb-19 18:27 288 3 gusting 10 2.8
2017-Feb-19 18:22 264 3 gusting 7 2.8
2017-Feb-19 18:17 276 3 gusting 7 2.8
2017-Feb-19 18:12 241 2 gusting 10 2.8
2017-Feb-19 18:07 268 2 gusting 10 2.8
2017-Feb-19 18:02 248 3 gusting 8 2.8
2017-Feb-19 17:57 290 2 gusting 8 2.8
2017-Feb-19 17:52 269 2 gusting 8 2.8
2017-Feb-19 17:47 266 2 gusting 8 2.8
2017-Feb-19 17:42 277 2 gusting 6 2.8
2017-Feb-19 17:37 277 1 gusting 6 2.8
2017-Feb-19 17:32 264 1 gusting 7 2.8
2017-Feb-19 17:27 260 2 gusting 7 2.8
2017-Feb-19 17:22 214 3 gusting 5 2.8
2017-Feb-19 17:17 248 2 gusting 5 2.8
2017-Feb-19 17:12 289 2 gusting 5 2.8
2017-Feb-19 17:07 246 2 gusting 8 2.8
2017-Feb-19 17:02 247 2 gusting 8 2.8
2017-Feb-19 16:57 238 1 gusting 8 2.8
2017-Feb-19 16:52 275 1 gusting 7 2.8
2017-Feb-19 16:47 267 2 gusting 7 2.8
2017-Feb-19 16:42 287 2 gusting 7 2.8
2017-Feb-19 16:37 257 1 gusting 6 2.8
2017-Feb-19 16:32 244 2 gusting 6 2.8
2017-Feb-19 16:27 267 2 gusting 6 2.8
2017-Feb-19 16:22 243 2 gusting 6 2.8
2017-Feb-19 16:17 246 2 gusting 6 2.8
2017-Feb-19 16:12 263 2 gusting 6 2.8
2017-Feb-19 16:07 252 2 gusting 7 2.8
2017-Feb-19 16:02 225 2 gusting 7 2.8
2017-Feb-19 15:57 284 1 gusting 7 2.8
2017-Feb-19 15:52 284 2 gusting 7 2.8
2017-Feb-19 15:47 293 2 gusting 7 2.8
2017-Feb-19 15:42 265 2 gusting 6 2.8
2017-Feb-19 15:37 265 2 gusting 6 2.8
2017-Feb-19 15:32 285 1 gusting 7 2.8
2017-Feb-19 15:27 273 1 gusting 7 2.8
2017-Feb-19 15:22 267 2 gusting 9 2.8
2017-Feb-19 15:17 272 3 gusting 9 2.8
2017-Feb-19 15:12 238 3 gusting 6 2.8
2017-Feb-19 15:07 284 3 gusting 6 2.8
2017-Feb-19 15:02 240 3 gusting 10 2.8
2017-Feb-19 14:57 266 2 gusting 10 2.8
2017-Feb-19 14:52 267 3 gusting 10 2.8
2017-Feb-19 14:47 282 3 gusting 10 2.8
2017-Feb-19 14:42 246 3 gusting 10 2.8
2017-Feb-19 14:37 268 3 gusting 10 2.8
2017-Feb-19 14:32 256 2 gusting 10 2.8
2017-Feb-19 14:27 279 4 gusting 10 2.8
2017-Feb-19 14:22 267 4 gusting 11 2.8
2017-Feb-19 14:17 255 3 gusting 11 2.8
2017-Feb-19 14:12 302 2 gusting 12 2.8
2017-Feb-19 14:07 277 3 gusting 8 2.8
2017-Feb-19 14:02 298 3 gusting 8 2.8
2017-Feb-19 13:57 285 3 gusting 8 2.8
2017-Feb-19 13:52 292 4 gusting 9 2.8
2017-Feb-19 13:47 281 3 gusting 9 2.8
2017-Feb-19 13:42 271 4 gusting 9 2.8
2017-Feb-19 13:37 264 3 gusting 9 2.8
2017-Feb-19 13:32 298 2 gusting 10 2.8
2017-Feb-19 13:27 244 2 gusting 10 2.8
2017-Feb-19 13:22 267 2 gusting 10 2.8
2017-Feb-19 13:17 279 2 gusting 10 2.8
2017-Feb-19 13:12 261 3 gusting 11 2.8
2017-Feb-19 13:07 203 3 gusting 11 2.8
2017-Feb-19 13:02 244 3 gusting 8 2.8
2017-Feb-19 12:57 268 3 gusting 8 2.8
2017-Feb-19 12:52 248 3 gusting 6 2.8
2017-Feb-19 12:47 265 2 gusting 6 2.8
2017-Feb-19 12:42 232 2 gusting 9 2.8
2017-Feb-19 12:37 246 2 gusting 9 2.8
2017-Feb-19 12:32 299 2 gusting 9 2.8
2017-Feb-19 12:27 264 2 gusting 9 2.8
2017-Feb-19 12:22 252 2 gusting 6 2.8
2017-Feb-19 12:17 300 1 gusting 6 2.2
2017-Feb-19 12:12 261 1 gusting 7 2.2
2017-Feb-19 12:07 220 2 gusting 7 2.2
2017-Feb-19 12:02 296 3 gusting 8 2.2
2017-Feb-19 11:57 259 2 gusting 8 2.2
2017-Feb-19 11:52 292 2 gusting 9 2.2
2017-Feb-19 11:47 267 2 gusting 9 2.2
2017-Feb-19 11:42 275 2 gusting 9 2.2
2017-Feb-19 11:37 252 2 gusting 9 2.2
2017-Feb-19 11:32 238 1 gusting 11 2.2
2017-Feb-19 11:27 292 2 gusting 11 2.2
2017-Feb-19 11:22 240 2 gusting 8 2.2
2017-Feb-19 11:17 265 3 gusting 8 1.7
2017-Feb-19 11:12 302 2 gusting 8 1.7
2017-Feb-19 11:07 275 2 gusting 7 1.7
2017-Feb-19 11:02 286 2 gusting 7 1.7
2017-Feb-19 10:57 267 2 gusting 7 1.7
2017-Feb-19 10:52 286 2 gusting 8 1.7
2017-Feb-19 10:47 274 2 gusting 8 1.7
2017-Feb-19 10:42 265 2 gusting 8 1.7
2017-Feb-19 10:37 260 2 gusting 8 1.7
2017-Feb-19 10:32 250 2 gusting 8 1.7
2017-Feb-19 10:27 281 2 gusting 7 1.7
2017-Feb-19 10:22 242 1 gusting 7 1.7
2017-Feb-19 10:17 263 2 gusting 7 1.1
2017-Feb-19 10:12 260 2 gusting 8 1.1
2017-Feb-19 10:07 241 2 gusting 6 1.1
2017-Feb-19 10:02 271 1 gusting 6 1.1